Regional Weather Roundup
Issued by NWS

Home | Current Version | Previous Version | Graphics & Text | Print | Product List | Glossary On
Versions: 1 2 3 4 5 6 7 8 9 10 11 12 13 14 15 16 17 18 19 20 21 22 23 24 25 26 27 28 29 30 31 32 33 34 35 36 37 38 39 40 41 42 43 44 45 46 47 48 49 50
000
ASUS43 KMKX 180600
RWRWI

WISCONSIN REGIONAL WEATHER ROUNDUP
NATIONAL WEATHER SERVICE MILWAUKEE/SULLIVAN WI
100 AM CDT FRI AUG 18 2017

NOTE: "FAIR" INDICATES FEW OR NO CLOUDS BELOW 12,000 FEET WITH NO
SIGNIFICANT WEATHER AND/OR OBSTRUCTIONS TO VISIBILITY.

WIZ001-002-006>008-014>016-023>028-180700-
NORTHWEST WISCONSIN

CITY           SKY/WX    TMP DP  RH WIND       PRES   REMARKS
SUPERIOR ARPT    N/A     60  57  92 NW3       29.79R
ASHLAND        CLOUDY    63  59  87 W7        29.75S
6HR MIN TEMP:  62; 6HR MAX TEMP:  63;

HAYWARD        CLOUDY    62  58  86 VRB5      29.79S
6HR MIN TEMP:  62; 6HR MAX TEMP:  63; 6HR PCP: TRACE;

SIREN          PTCLDY    60  59  94 W5        29.83R
CUMBERLAND     MOCLDY    61  57  88 NW8       29.82R
RICE LAKE      CLOUDY    63  58  86 W7        29.82S
CHETEK         CLOUDY    64  59  86 W7        29.80S
LADYSMITH      CLOUDY    63  61  92 NW10      29.79S
EAU CLAIRE     NOT AVBL
MENOMONIE      CLOUDY    66  59  80 NW8       29.81S
NEW RICHMOND   PTCLDY    63  59  88 NW8       29.83S
OSCEOLA        CLEAR     62  62 100 NW3       29.85F
$$

WIZ003>005-009-010-017-018-180700-
NORTH CENTRAL WISCONSIN

CITY           SKY/WX    TMP DP  RH WIND       PRES   REMARKS
MANITOWISH WTR CLOUDY    59  59 100 N9G17     29.71S
ARBOR VITAE    CLOUDY    62  60  94 NW10      29.71S
WOODRUFF       CLOUDY    62  60  94 NW10      29.71S
RHINELANDER    CLOUDY    60  60 100 NW7G18    29.71R
6HR MIN TEMP:  60; 6HR MAX TEMP:  66; 6HR PCP:  0.01;

EAGLE RIVER    CLOUDY    60  59  97 NW9G21    29.69R
LAND O LAKES   CLOUDY    60  59  97 NW9       29.70S FOG
6HR MIN TEMP:  59; 6HR MAX TEMP:  65;

PHILLIPS       CLOUDY    60  60  99 NW8       29.75R
6HR MIN TEMP:  60; 6HR MAX TEMP:  61;

TOMAHAWK         N/A     60  57  91 NW8       29.73R
MEDFORD        DRIZZLE   61  59  95 NW7       29.75S
MERRILL        CLOUDY    61  61 100 NW5       29.73R
$$

WIZ029-030-035-036-043>047-180700-
CENTRAL WISCONSIN

CITY           SKY/WX    TMP DP  RH WIND       PRES   REMARKS
WAUSAU         LGT RAIN  61  61 100 W9        29.71S
6HR MIN TEMP:  61; 6HR MAX TEMP:  66; 6HR PCP: TRACE;

MOSINEE        RAIN      61  61 100 W9        29.74S
MARSHFIELD     CLOUDY    62  59  90 NW12G20   29.75S
6HR MIN TEMP:  62; 6HR MAX TEMP:  64; 6HR PCP: TRACE;

STEVENS POINT  CLOUDY    62  61  97 W6        29.73S
WAUPACA        PTCLDY    67  62  85 W8        29.71R
WAUTOMA        CLOUDY    65  61  87 W12       29.74R
6HR MIN TEMP:  64; 6HR MAX TEMP:  67;

WISC RAPIDS    CLOUDY    63  62  97 W12       29.76S
6HR MIN TEMP:  63; 6HR MAX TEMP:  66; 6HR PCP:  0.01;

CAMP DOUGLAS   NOT AVBL
$$

WIZ011>013-019>022-031-037>040-048>050-180700-
NORTHEAST WISCONSIN

CITY           SKY/WX    TMP DP  RH WIND       PRES   REMARKS
ANTIGO         CLOUDY    60  59  98 NW12G17   29.70S
SHAWANO        CLOUDY    65  59  81 W10G17    29.67S
6HR MIN TEMP:  65; 6HR MAX TEMP:  74; 6HR PCP:  0.01;

OCONTO         CLOUDY    64  60  87 W8        29.62R
STURGEON BAY   CLOUDY    66  61  84 W15       29.62R
6HR MIN TEMP:  66; 6HR MAX TEMP:  73; 6HR PCP:  0.03;

GREEN BAY      CLOUDY    65  61  87 W14G22    29.66R
6HR MIN TEMP:  65; 6HR MAX TEMP:  73; 6HR PCP:  0.01;

MANITOWOC      NOT AVBL
APPLETON       PTCLDY    63  55  77 W17       29.67S
CLINTONVILLE   PTCLDY    63  57  82 NW7       29.68S
OSHKOSH        CLOUDY    66  61  84 W9        29.69S
6HR MIN TEMP:  65; 6HR MAX TEMP:  70; 6HR PCP: TRACE;

$$

WIZ032>034-041-042-053>061-180700-
SOUTHWEST WISCONSIN

CITY           SKY/WX    TMP DP  RH WIND       PRES   REMARKS
LA CROSSE      CLOUDY    70  63  78 NW13      29.80R
6HR MIN TEMP:  69; 6HR MAX TEMP:  73; 6HR PCP:  0.01;

SPARTA         CLOUDY    65  61  84 NW6       29.80S
VIROQUA        CLOUDY    64  64 100 W6        29.82S
6HR MIN TEMP:  64; 6HR MAX TEMP:  67;

BOSCOBEL       CLOUDY    70  64  81 SW5       29.80S
6HR MIN TEMP:  70; 6HR MAX TEMP:  74; 6HR PCP: TRACE;

PRAIRIE DU CHI MOCLDY    67  62  82 NW7       29.82R
PLATTEVILLE    PTCLDY    65  65 100 W7        29.82F
$$

WIZ056-057-062-063-064-067-068-180700-
SOUTH CENTRAL WISCONSIN

CITY           SKY/WX    TMP DP  RH WIND       PRES   REMARKS
REEDSBURG      CLOUDY    65  63  90 NW12G20   29.77S
BARABOO/DELLS  CLOUDY    65  59  80 W10       29.77S
LONE ROCK      NOT AVBL
MINERAL POINT  LGT RAIN  68  68 100 W6        29.81S
MADISON        PTCLDY    66  61  84 VRB5      29.76S
6HR MIN TEMP:  66; 6HR MAX TEMP:  68; 6HR PCP: TRACE;

MIDDLETON      CLOUDY    67  62  84 W10       29.78S
WATERTOWN      CLOUDY    66  64  93 W9        29.75S
MONROE         CLOUDY    64  63  94 W8        29.80S
JANESVILLE     PTCLDY    68  64  88 W7        29.77S
$$

WIZ051-052-058>065-066-070>072-180700-
SOUTHEAST WISCONSIN

CITY           SKY/WX    TMP DP  RH WIND       PRES   REMARKS
MILWAUKEE      PTCLDY    69  61  75 W13G22    29.72S
6HR MIN TEMP:  69; 6HR MAX TEMP:  77;

WAUKESHA       MOCLDY    63  59  88 W12G18    29.75S
MILWAUKEE/TIMM MOCLDY    64  57  77 W15       29.73S
RACINE         CLEAR     68  62  81 W14       29.75S
6HR MIN TEMP:  68; 6HR MAX TEMP:  74;

KENOSHA        CLOUDY    69  61  75 W12       29.75R
6HR MIN TEMP:  69; 6HR MAX TEMP:  76;

FOND DU LAC    CLOUDY    67  60  78 W12       29.71S
6HR MIN TEMP:  66; 6HR MAX TEMP:  73; 6HR PCP: TRACE;

SHEBOYGAN      MOCLDY    66  62  87 W13       29.68R
6HR MIN TEMP:  66; 6HR MAX TEMP:  73; 6HR PCP: TRACE;

WEST BEND      CLOUDY    64  61  88 W15       29.71S
JUNEAU         CLOUDY    65  61  87 W6        29.75S
$$

LSZ147-162-180700-
LAKE SUPERIOR

STATION/POSITION TIME  TEMP    WIND        PRES    WAVE
                       AIR SEA DIR/SP/G            HT/PER
                 (UTC) (F)     (DEG/KT/KT) (MB)    (FT/S)
W MID LAKE BUOY  0450   61 60  300/ 14/ 16 1004.3R   3/ 5
DEVILS ISLAND    0500   63     300/ 12/ 13 1006.6R
SAXON HARBOR     0540   64     280/  8/ 11 1006.4R
$$

LMZ867-665-643>646-180700-
LAKE MICHIGAN

STATION/POSITION TIME  TEMP    WIND        PRES    WAVE
                       AIR SEA DIR/SP/G            HT/PER
                 (UTC) (F)     (DEG/KT/KT) (MB)    (FT/S)
S GREEN BAY BUOY 0530   67 71  270/ 16/ 23 1003.0R
N MID LAKE BUOY  0450   68 67  240/ 12/ 16 1000.0S   4/ 6
NORTHPORT PIER   0540   67     300/ 11/ 21 1001.0R
KEWAUNEE LAKESHO 0530   66     270/ 12/ 17 1002.6R
SHEBOYGAN LAKESH 0500   68     280/ 11/ 14 1004.3R
PORT WASHINGTON  0530   69     280/  6/ 15 1006.4R
ATWATER BUOY     0409   69 69  260/ 14/ 17 1006.4R
MILWAUKEE LAKESH 0540   68     280/ 13/ 20   N/A
S MID LAKE BUOY  0450   71 71  310/ 21/ 25 1005.9R   5/ 5
KENOSHA   LAKESH 0500   71     260/ 13/ 18 1007.1
$$

TC  - TEMPERATURE IN CELSIUS
VSB - VISIBILITY IN STATUTE MILES
WCI - WIND CHILL INDEX
HX  - HEAT INDEX





USA.gov is the U.S. government's official web portal to all federal, state and local government web resources and services.